DAL2879 KATL-KORD

Flight info

Callsign DAL2879
Flight time 1h 31m
Altitude 33000
Route VARNM2 GLAZR Q118 VOSTK/N0461F340 Q118 HEVAN BONNT VEECK5
Aircraft B738/M-SDE2E3FGHIRWXY/LB1

Departure

Time 2026-05-04 23:48
Airport Hartsfield Jackson Atlanta International Airport (KATL)

Arrival

Time 2026-05-05 01:20
Airport Chicago O'Hare International Airport (KORD)
Time Latitude Longitude Altitude Speed Heading
2026-05-04 23:26 33.64380 -84.43866 1005 ft 0 kts 271°
2026-05-04 23:33 33.64380 -84.43865 1005 ft 2 kts 271°
2026-05-04 23:33 33.64376 -84.43837 1005 ft 4 kts 306°
2026-05-04 23:33 33.64360 -84.43825 1005 ft 1 kts 359°
2026-05-04 23:37 33.64383 -84.43818 1005 ft 6 kts 22°
2026-05-04 23:37 33.64414 -84.43790 1005 ft 6 kts 45°
2026-05-04 23:38 33.64439 -84.43754 1005 ft 6 kts 53°
2026-05-04 23:38 33.64469 -84.43728 1005 ft 6 kts 18°
2026-05-04 23:38 33.64506 -84.43713 1005 ft 6 kts 23°
2026-05-04 23:38 33.64535 -84.43683 1005 ft 5 kts 57°
2026-05-04 23:39 33.64543 -84.43636 1005 ft 7 kts 88°
2026-05-04 23:39 33.64544 -84.43567 1006 ft 9 kts 91°
2026-05-04 23:39 33.64543 -84.43495 1006 ft 8 kts 90°
2026-05-04 23:39 33.64542 -84.43422 1006 ft 11 kts 90°
2026-05-04 23:40 33.64541 -84.43290 1006 ft 19 kts 90°
2026-05-04 23:40 33.64541 -84.43135 1006 ft 18 kts 90°
2026-05-04 23:40 33.64542 -84.42986 1006 ft 18 kts 89°
2026-05-04 23:40 33.64542 -84.42842 1005 ft 17 kts 90°
2026-05-04 23:41 33.64542 -84.42702 1005 ft 16 kts 90°
2026-05-04 23:41 33.64542 -84.42552 1005 ft 24 kts 90°
2026-05-04 23:41 33.64541 -84.42323 1005 ft 28 kts 89°
2026-05-04 23:41 33.64542 -84.42100 1005 ft 26 kts 90°
2026-05-04 23:42 33.64541 -84.41890 1005 ft 24 kts 90°
2026-05-04 23:42 33.64542 -84.41696 1006 ft 23 kts 90°
2026-05-04 23:42 33.64543 -84.41506 1006 ft 22 kts 90°
2026-05-04 23:42 33.64543 -84.41322 1006 ft 22 kts 90°
2026-05-04 23:43 33.64543 -84.41142 1006 ft 21 kts 90°
2026-05-04 23:43 33.64542 -84.40968 1005 ft 21 kts 90°
2026-05-04 23:43 33.64550 -84.40809 1005 ft 10 kts 57°
2026-05-04 23:43 33.64570 -84.40730 1005 ft 10 kts 92°
2026-05-04 23:44 33.64569 -84.40648 1005 ft 10 kts 91°
2026-05-04 23:44 33.64581 -84.40585 1004 ft 0 kts 44°
2026-05-04 23:44 33.64610 -84.40570 1004 ft 15 kts 14°
2026-05-04 23:45 33.64677 -84.40578 1003 ft 3 kts 309°
2026-05-04 23:45 33.64680 -84.40603 1003 ft 3 kts 278°
2026-05-04 23:45 33.64680 -84.40617 1003 ft 0 kts 269°
2026-05-04 23:48 33.64680 -84.40685 1003 ft 32 kts 269°
2026-05-04 23:48 33.64680 -84.41304 1008 ft 115 kts 270°
2026-05-04 23:48 33.64668 -84.42564 1036 ft 183 kts 270°
2026-05-04 23:48 33.64723 -84.44164 1858 ft 196 kts 270°
2026-05-04 23:49 33.64799 -84.45873 2576 ft 217 kts 271°
2026-05-04 23:49 33.64987 -84.47779 3127 ft 237 kts 283°
2026-05-04 23:49 33.65693 -84.49580 3727 ft 245 kts 296°
2026-05-04 23:49 33.66531 -84.51461 4071 ft 265 kts 295°
2026-05-04 23:50 33.67410 -84.53486 4796 ft 272 kts 295°
2026-05-04 23:50 33.68273 -84.55472 5709 ft 272 kts 297°
2026-05-04 23:50 33.69531 -84.57228 6574 ft 280 kts 323°
2026-05-04 23:50 33.71310 -84.58125 7372 ft 286 kts 348°
2026-05-04 23:51 33.73310 -84.58257 8196 ft 291 kts 359°
2026-05-04 23:51 33.75349 -84.58198 8977 ft 295 kts 359°
2026-05-04 23:51 33.77415 -84.58140 9802 ft 298 kts 359°
2026-05-04 23:51 33.79441 -84.58100 10531 ft 301 kts 358°
2026-05-04 23:52 33.81539 -84.58071 11278 ft 304 kts 358°
2026-05-04 23:52 33.83723 -84.58081 11570 ft 326 kts 357°
2026-05-04 23:52 33.86069 -84.58127 11733 ft 348 kts 356°
2026-05-04 23:52 33.88571 -84.58204 11895 ft 369 kts 356°
2026-05-04 23:53 33.91209 -84.58293 12101 ft 387 kts 356°
2026-05-04 23:53 33.93936 -84.58382 12576 ft 396 kts 356°
2026-05-04 23:53 33.96694 -84.58469 13265 ft 398 kts 356°
2026-05-04 23:53 33.99470 -84.58553 13954 ft 400 kts 356°
2026-05-04 23:54 34.02262 -84.58637 14530 ft 403 kts 356°
2026-05-04 23:54 34.05090 -84.58722 15094 ft 407 kts 356°
2026-05-04 23:54 34.07894 -84.58807 15644 ft 410 kts 356°
2026-05-04 23:54 34.10758 -84.58893 16228 ft 413 kts 356°
2026-05-04 23:55 34.13642 -84.58979 16804 ft 416 kts 355°
2026-05-04 23:55 34.16549 -84.59067 17333 ft 419 kts 355°
2026-05-04 23:55 34.22437 -84.59245 18394 ft 426 kts 355°
2026-05-04 23:56 34.25416 -84.59335 18879 ft 429 kts 355°
2026-05-04 23:56 34.28406 -84.59425 19384 ft 431 kts 355°
2026-05-04 23:56 34.31407 -84.59578 19890 ft 432 kts 353°
2026-05-04 23:56 34.34414 -84.59822 20367 ft 434 kts 352°
2026-05-04 23:57 34.37428 -84.60102 20855 ft 436 kts 352°
2026-05-04 23:57 34.40419 -84.60387 21317 ft 438 kts 352°
2026-05-04 23:57 34.43468 -84.60673 21756 ft 440 kts 352°
2026-05-04 23:57 34.46532 -84.60951 22163 ft 443 kts 352°
2026-05-04 23:58 34.49611 -84.61224 22581 ft 445 kts 352°
2026-05-04 23:58 34.52706 -84.61492 23004 ft 447 kts 352°
2026-05-04 23:58 34.55823 -84.61759 23411 ft 450 kts 352°
2026-05-04 23:58 34.58953 -84.62026 23771 ft 452 kts 352°
2026-05-04 23:59 34.62096 -84.62293 24105 ft 454 kts 352°
2026-05-04 23:59 34.65253 -84.62562 24453 ft 455 kts 352°
2026-05-04 23:59 34.68419 -84.62831 24790 ft 457 kts 352°
2026-05-04 23:59 34.71596 -84.63102 25088 ft 459 kts 352°
2026-05-05 00:00 34.74788 -84.63375 25393 ft 461 kts 352°
2026-05-05 00:00 34.75828 -84.63465 25485 ft 462 kts 352°
2026-05-05 00:00 34.81214 -84.63926 26000 ft 464 kts 352°
2026-05-05 00:00 34.84449 -84.64203 26266 ft 467 kts 352°
2026-05-05 00:01 34.87664 -84.64479 26530 ft 470 kts 352°
2026-05-05 00:01 34.90932 -84.64760 26799 ft 472 kts 352°
2026-05-05 00:01 34.94208 -84.65041 27124 ft 472 kts 352°
2026-05-05 00:01 34.97488 -84.65322 27533 ft 470 kts 352°
2026-05-05 00:02 35.00739 -84.65600 27982 ft 468 kts 352°
2026-05-05 00:02 35.03977 -84.65878 28373 ft 467 kts 352°
2026-05-05 00:02 35.07219 -84.66158 28723 ft 467 kts 352°
2026-05-05 00:02 35.10466 -84.66438 29098 ft 467 kts 352°
2026-05-05 00:03 35.13706 -84.66718 29526 ft 465 kts 352°
2026-05-05 00:03 35.16917 -84.66990 30120 ft 459 kts 352°
2026-05-05 00:03 35.20100 -84.67262 30509 ft 457 kts 352°
2026-05-05 00:03 35.23236 -84.67536 30748 ft 459 kts 352°
2026-05-05 00:04 35.26424 -84.67815 30987 ft 460 kts 352°
2026-05-05 00:04 35.29615 -84.68094 31302 ft 459 kts 352°
2026-05-05 00:04 35.32800 -84.68371 31674 ft 458 kts 352°
2026-05-05 00:04 35.35976 -84.68647 31993 ft 457 kts 352°
2026-05-05 00:05 35.39149 -84.68923 32310 ft 457 kts 351°
2026-05-05 00:05 35.42310 -84.69198 32651 ft 455 kts 351°
2026-05-05 00:05 35.45464 -84.69472 32981 ft 454 kts 351°
2026-05-05 00:06 35.51828 -84.70029 32992 ft 460 kts 351°
2026-05-05 00:06 35.58192 -84.70583 32978 ft 455 kts 351°
2026-05-05 00:07 35.64446 -84.71127 32989 ft 452 kts 351°
2026-05-05 00:07 35.70721 -84.71677 32969 ft 452 kts 351°
2026-05-05 00:08 35.76985 -84.72228 32956 ft 451 kts 351°
2026-05-05 00:08 35.83249 -84.72778 32960 ft 451 kts 351°
2026-05-05 00:09 35.89515 -84.73332 32987 ft 451 kts 351°
2026-05-05 00:09 35.95783 -84.73882 32991 ft 451 kts 351°
2026-05-05 00:10 36.02052 -84.74435 32998 ft 452 kts 351°
2026-05-05 00:10 36.08342 -84.74992 32986 ft 453 kts 351°
2026-05-05 00:11 36.14633 -84.75549 32996 ft 454 kts 351°
2026-05-05 00:11 36.20951 -84.76109 32958 ft 455 kts 351°
2026-05-05 00:12 36.27228 -84.76666 32952 ft 455 kts 351°
2026-05-05 00:12 36.33548 -84.77228 32951 ft 455 kts 351°
2026-05-05 00:13 36.39856 -84.77790 32971 ft 454 kts 351°
2026-05-05 00:13 36.46200 -84.78114 32952 ft 458 kts 355°
2026-05-05 00:14 36.51501 -84.77914 32946 ft 458 kts 357°
2026-05-05 00:14 36.57871 -84.77607 32947 ft 457 kts 356°
2026-05-05 00:15 36.64225 -84.77371 32972 ft 456 kts 356°
2026-05-05 00:15 36.70575 -84.77183 32941 ft 456 kts 356°
2026-05-05 00:16 36.76932 -84.77001 32950 ft 455 kts 356°
2026-05-05 00:16 36.83263 -84.76822 32940 ft 455 kts 356°
2026-05-05 00:17 36.89583 -84.76642 32968 ft 454 kts 356°
2026-05-05 00:17 36.95900 -84.76462 32959 ft 454 kts 356°
2026-05-05 00:18 37.02178 -84.76281 32898 ft 454 kts 356°
2026-05-05 00:18 37.08499 -84.76098 32904 ft 454 kts 356°
2026-05-05 00:19 37.14826 -84.75915 32916 ft 455 kts 356°
2026-05-05 00:19 37.21150 -84.75730 32907 ft 454 kts 356°
2026-05-05 00:20 37.27479 -84.75546 32907 ft 454 kts 356°
2026-05-05 00:20 37.33800 -84.75361 32905 ft 454 kts 356°
2026-05-05 00:21 37.40073 -84.75155 32905 ft 454 kts 356°
2026-05-05 00:21 37.46386 -84.74940 32896 ft 453 kts 356°
2026-05-05 00:22 37.52691 -84.74728 32897 ft 452 kts 356°
2026-05-05 00:22 37.58984 -84.74518 32900 ft 452 kts 356°
2026-05-05 00:23 37.65268 -84.74309 32901 ft 452 kts 356°
2026-05-05 00:23 37.71547 -84.74098 32899 ft 451 kts 356°
2026-05-05 00:24 37.77818 -84.73903 32886 ft 450 kts 356°
2026-05-05 00:24 37.84039 -84.73719 32896 ft 450 kts 356°
2026-05-05 00:25 37.90302 -84.73532 32873 ft 450 kts 356°
2026-05-05 00:25 37.96567 -84.73343 32871 ft 450 kts 356°
2026-05-05 00:26 38.02824 -84.73153 32873 ft 449 kts 356°
2026-05-05 00:26 38.09082 -84.72962 32887 ft 449 kts 356°
2026-05-05 00:27 38.15340 -84.72772 32840 ft 450 kts 356°
2026-05-05 00:27 38.21562 -84.72582 32834 ft 450 kts 356°
2026-05-05 00:28 38.27819 -84.72391 32835 ft 450 kts 356°
2026-05-05 00:28 38.34078 -84.72200 32836 ft 450 kts 356°
2026-05-05 00:29 38.40342 -84.72008 32833 ft 450 kts 356°
2026-05-05 00:29 38.46582 -84.72095 32826 ft 445 kts 348°
2026-05-05 00:30 38.52470 -84.74128 32843 ft 436 kts 335°
2026-05-05 00:30 38.58165 -84.76842 32834 ft 437 kts 336°
2026-05-05 00:31 38.63884 -84.79540 32821 ft 438 kts 336°
2026-05-05 00:31 38.69623 -84.82210 32815 ft 439 kts 336°
2026-05-05 00:32 38.75373 -84.84876 32814 ft 440 kts 336°
2026-05-05 00:32 38.81121 -84.87548 32821 ft 441 kts 337°
2026-05-05 00:33 38.86850 -84.90215 32811 ft 441 kts 337°
2026-05-05 00:33 38.92629 -84.92911 32805 ft 442 kts 337°
2026-05-05 00:34 38.98403 -84.95614 32804 ft 442 kts 336°
2026-05-05 00:34 39.04186 -84.98333 32812 ft 442 kts 336°
2026-05-05 00:35 39.09975 -85.01061 32791 ft 442 kts 336°
2026-05-05 00:35 39.15742 -85.03782 32786 ft 441 kts 336°
2026-05-05 00:36 39.21506 -85.06506 32783 ft 441 kts 336°
2026-05-05 00:36 39.27265 -85.09233 32793 ft 441 kts 336°
2026-05-05 00:37 39.32990 -85.11949 32788 ft 441 kts 336°
2026-05-05 00:37 39.38749 -85.14680 32788 ft 440 kts 336°
2026-05-05 00:38 39.44511 -85.17407 32786 ft 440 kts 336°
2026-05-05 00:38 39.50265 -85.20135 32793 ft 440 kts 336°
2026-05-05 00:39 39.55985 -85.22853 32784 ft 440 kts 336°
2026-05-05 00:39 39.61738 -85.25593 32775 ft 440 kts 336°
2026-05-05 00:40 39.67488 -85.28336 32764 ft 440 kts 336°
2026-05-05 00:40 39.73150 -85.31042 32776 ft 441 kts 336°
2026-05-05 00:41 39.78910 -85.33799 32752 ft 441 kts 336°
2026-05-05 00:41 39.84672 -85.36563 32750 ft 441 kts 335°
2026-05-05 00:42 39.90435 -85.39332 32746 ft 441 kts 335°
2026-05-05 00:42 39.96201 -85.42107 32757 ft 442 kts 335°
2026-05-05 00:43 40.01938 -85.44872 32755 ft 442 kts 335°
2026-05-05 00:43 40.07724 -85.47669 32744 ft 443 kts 335°
2026-05-05 00:44 40.13515 -85.50471 32722 ft 444 kts 335°
2026-05-05 00:44 40.19316 -85.53284 32729 ft 444 kts 335°
2026-05-05 00:45 40.25115 -85.56100 32715 ft 445 kts 335°
2026-05-05 00:45 40.30924 -85.58927 32715 ft 445 kts 335°
2026-05-05 00:46 40.36721 -85.61753 32714 ft 445 kts 335°
2026-05-05 00:46 40.42531 -85.64592 32722 ft 446 kts 335°
2026-05-05 00:47 40.48312 -85.67420 32714 ft 447 kts 335°
2026-05-05 00:47 40.54274 -85.69913 32718 ft 450 kts 340°
2026-05-05 00:48 40.60343 -85.72029 32712 ft 452 kts 340°
2026-05-05 00:48 40.66414 -85.74192 32706 ft 452 kts 340°
2026-05-05 00:49 40.72478 -85.76419 32700 ft 452 kts 340°
2026-05-05 00:49 40.78545 -85.78663 32696 ft 453 kts 340°
2026-05-05 00:50 40.84412 -85.81344 32680 ft 443 kts 322°
2026-05-05 00:50 40.86740 -85.83919 32701 ft 434 kts 309°
2026-05-05 00:50 40.88510 -85.87102 32681 ft 428 kts 295°
2026-05-05 00:51 40.90917 -85.94269 32668 ft 427 kts 290°
2026-05-05 00:51 40.93188 -86.01531 32665 ft 427 kts 290°
2026-05-05 00:52 40.95496 -86.08784 32667 ft 428 kts 291°
2026-05-05 00:52 40.97829 -86.16023 32667 ft 428 kts 291°
2026-05-05 00:53 41.00171 -86.23280 32664 ft 429 kts 290°
2026-05-05 00:53 41.02510 -86.30548 32685 ft 429 kts 290°
2026-05-05 00:54 41.04824 -86.37754 32297 ft 418 kts 290°
2026-05-05 00:54 41.05942 -86.41245 31582 ft 418 kts 290°
2026-05-05 00:54 41.07076 -86.44794 31036 ft 416 kts 290°
2026-05-05 00:54 41.08206 -86.48336 30912 ft 422 kts 290°
2026-05-05 00:55 41.09362 -86.51967 30795 ft 432 kts 290°
2026-05-05 00:55 41.11730 -86.59404 30684 ft 440 kts 290°
2026-05-05 00:56 41.14341 -86.66723 30641 ft 440 kts 296°
2026-05-05 00:56 41.17383 -86.73765 30631 ft 438 kts 297°
2026-05-05 00:57 41.20410 -86.80773 30631 ft 436 kts 296°
2026-05-05 00:57 41.23362 -86.87792 30635 ft 435 kts 296°
2026-05-05 00:58 41.26296 -86.94850 30653 ft 437 kts 295°
2026-05-05 00:58 41.29223 -87.01907 30635 ft 434 kts 295°
2026-05-05 00:59 41.32133 -87.08914 30647 ft 431 kts 297°
2026-05-05 00:59 41.35988 -87.15074 30633 ft 439 kts 314°
2026-05-05 00:59 41.38266 -87.17665 30469 ft 432 kts 315°
2026-05-05 01:00 41.40542 -87.20240 29822 ft 430 kts 315°
2026-05-05 01:00 41.42823 -87.22839 28832 ft 433 kts 315°
2026-05-05 01:00 41.45120 -87.25482 27691 ft 439 kts 315°
2026-05-05 01:00 41.47445 -87.28175 26529 ft 445 kts 315°
2026-05-05 01:01 41.49773 -87.30879 25836 ft 441 kts 315°
2026-05-05 01:01 41.52035 -87.33503 25691 ft 418 kts 314°
2026-05-05 01:01 41.54171 -87.35979 25556 ft 394 kts 314°
2026-05-05 01:01 41.55517 -87.37542 25459 ft 379 kts 314°
2026-05-05 01:02 41.57456 -87.39800 25321 ft 359 kts 313°
2026-05-05 01:02 41.59288 -87.41940 25170 ft 342 kts 313°
2026-05-05 01:02 41.61050 -87.44005 24765 ft 333 kts 313°
2026-05-05 01:02 41.63345 -87.46704 23982 ft 331 kts 313°
2026-05-05 01:03 41.64514 -87.48079 23593 ft 330 kts 313°
2026-05-05 01:03 41.66231 -87.50096 23039 ft 327 kts 313°
2026-05-05 01:03 41.67933 -87.52093 22425 ft 324 kts 313°
2026-05-05 01:03 41.69616 -87.54067 21815 ft 321 kts 313°
2026-05-05 01:04 41.71287 -87.56029 21248 ft 318 kts 313°
2026-05-05 01:04 41.74562 -87.59479 20984 ft 295 kts 329°
2026-05-05 01:04 41.76516 -87.60252 20814 ft 294 kts 343°
2026-05-05 01:05 41.78586 -87.60355 20363 ft 303 kts 357°
2026-05-05 01:05 41.80681 -87.59727 19847 ft 316 kts 14°
2026-05-05 01:05 41.82615 -87.58250 19377 ft 327 kts 34°
2026-05-05 01:05 41.84128 -87.55953 18944 ft 333 kts 56°
2026-05-05 01:06 41.84993 -87.53070 18523 ft 335 kts 78°
2026-05-05 01:06 41.85094 -87.49976 18100 ft 332 kts 101°
2026-05-05 01:06 41.84473 -87.47040 17645 ft 325 kts 118°
2026-05-05 01:06 41.83318 -87.44499 17186 ft 314 kts 137°
2026-05-05 01:07 41.81789 -87.42459 16753 ft 307 kts 144°
2026-05-05 01:07 41.80192 -87.40579 16312 ft 305 kts 145°
2026-05-05 01:07 41.78597 -87.38708 15882 ft 303 kts 145°
2026-05-05 01:07 41.77021 -87.36836 15456 ft 302 kts 144°
2026-05-05 01:08 41.75361 -87.35208 15013 ft 290 kts 163°
2026-05-05 01:08 41.73477 -87.34452 14591 ft 277 kts 179°
2026-05-05 01:08 41.71595 -87.34353 14190 ft 267 kts 193°
2026-05-05 01:08 41.69806 -87.34818 13753 ft 258 kts 205°
2026-05-05 01:09 41.68201 -87.35808 13321 ft 251 kts 219°
2026-05-05 01:09 41.66878 -87.37254 12900 ft 242 kts 232°
2026-05-05 01:09 41.65895 -87.39049 12429 ft 238 kts 245°
2026-05-05 01:09 41.65277 -87.41086 11944 ft 236 kts 258°
2026-05-05 01:10 41.65040 -87.43235 11537 ft 233 kts 270°
2026-05-05 01:10 41.65177 -87.45381 11130 ft 231 kts 280°
2026-05-05 01:10 41.65532 -87.47472 10709 ft 231 kts 291°
2026-05-05 01:10 41.66486 -87.49168 10283 ft 234 kts 312°
2026-05-05 01:11 41.67635 -87.50701 9901 ft 233 kts 311°
2026-05-05 01:11 41.68772 -87.52244 9504 ft 232 kts 311°
2026-05-05 01:11 41.69900 -87.53778 9097 ft 230 kts 311°
2026-05-05 01:11 41.71020 -87.55302 8687 ft 229 kts 311°
2026-05-05 01:12 41.72133 -87.56820 8242 ft 228 kts 310°
2026-05-05 01:12 41.73356 -87.58170 7817 ft 233 kts 330°
2026-05-05 01:12 41.74922 -87.58810 7427 ft 236 kts 342°
2026-05-05 01:12 41.76529 -87.59230 7105 ft 234 kts 343°
2026-05-05 01:13 41.78130 -87.59618 6707 ft 234 kts 342°
2026-05-05 01:13 41.79736 -87.60009 6337 ft 234 kts 342°
2026-05-05 01:13 41.81308 -87.60397 5973 ft 233 kts 342°
2026-05-05 01:13 41.82921 -87.60799 5559 ft 233 kts 342°
2026-05-05 01:14 41.84492 -87.61196 5138 ft 233 kts 342°
2026-05-05 01:14 41.86092 -87.61602 4687 ft 236 kts 341°
2026-05-05 01:14 41.87700 -87.62011 4322 ft 234 kts 342°
2026-05-05 01:14 41.89306 -87.62422 4067 ft 236 kts 342°
2026-05-05 01:15 41.90939 -87.62842 4048 ft 240 kts 341°
2026-05-05 01:15 41.92575 -87.63260 4028 ft 238 kts 341°
2026-05-05 01:15 41.94188 -87.63673 4024 ft 236 kts 341°
2026-05-05 01:15 41.95805 -87.64089 4030 ft 237 kts 341°
2026-05-05 01:16 41.97429 -87.64508 4032 ft 238 kts 341°
2026-05-05 01:16 41.98969 -87.65185 4013 ft 226 kts 316°
2026-05-05 01:16 41.99808 -87.66798 4029 ft 207 kts 277°
2026-05-05 01:16 41.99972 -87.68710 4037 ft 207 kts 272°
2026-05-05 01:17 42.00105 -87.70644 4031 ft 208 kts 274°
2026-05-05 01:17 42.00258 -87.72574 4009 ft 204 kts 271°
2026-05-05 01:17 42.00302 -87.74404 3997 ft 188 kts 267°
2026-05-05 01:17 42.00300 -87.76111 4017 ft 179 kts 267°
2026-05-05 01:18 42.00298 -87.77805 3791 ft 191 kts 268°
2026-05-05 01:18 42.00315 -87.79756 2911 ft 221 kts 268°
2026-05-05 01:18 42.00325 -87.81910 2035 ft 231 kts 265°
2026-05-05 01:18 42.00292 -87.83920 1726 ft 213 kts 265°
2026-05-05 01:19 42.00288 -87.85895 1255 ft 206 kts 266°
2026-05-05 01:19 42.00290 -87.87746 988 ft 189 kts 268°
2026-05-05 01:19 42.00291 -87.89435 753 ft 171 kts 263°
2026-05-05 01:19 42.00279 -87.90942 669 ft 144 kts 266°
2026-05-05 01:20 42.00280 -87.91744 666 ft 48 kts 270°
2026-05-05 01:20 42.00279 -87.92167 670 ft 42 kts 267°
2026-05-05 01:20 42.00204 -87.92457 668 ft 17 kts 217°
2026-05-05 01:20 42.00146 -87.92450 668 ft 3 kts 95°
2026-05-05 01:21 42.00144 -87.92400 668 ft 11 kts 90°
2026-05-05 01:21 42.00145 -87.92285 668 ft 12 kts 90°
2026-05-05 01:21 42.00145 -87.92170 668 ft 12 kts 89°
2026-05-05 01:21 42.00145 -87.92058 668 ft 12 kts 90°
2026-05-05 01:22 42.00144 -87.92024 668 ft 0 kts 91°
2026-05-05 01:22 42.00144 -87.92023 668 ft 0 kts 91°